EW4052 Weather Reports


time (UTC)temp
C
wind
direction
speed
KPH
gust
KPH
rain 1hr
cm
rain 24hr
cm
rain mn
cm
humidity
%
barometer
mb
20260505121522 4 242 3.2 8.0 0.00 0.00 0.00 70 1009.6
20260505120020 3 240 0.0 0.0 0.00 0.00 0.00 68 1009.3
20260505114518 3 240 0.0 0.0 0.00 0.00 0.00 68 1009.0
20260505113116 2 240 0.0 0.0 0.00 0.00 0.00 68 1008.9
20260505111513 2 240 0.0 0.0 0.00 0.00 0.00 66 1008.6
20260505101559 5 259 8.0 14.5 0.00 0.00 0.00 63 1007.8
20260505100056 5 259 9.7 16.1 0.00 0.00 0.00 62 1007.5
20260505094554 6 254 11.3 16.1 0.00 0.00 0.00 62 1007.3
20260505093050 6 248 6.4 16.1 0.00 0.00 0.00 62 1007.3
20260505091606 6 265 9.7 17.7 0.00 0.00 0.00 62 1007.1
20260505090046 6 263 9.7 17.7 0.00 0.00 0.00 62 1007.1
20260505084542 6 260 8.0 14.5 0.00 0.00 0.00 60 1006.9
20260505083039 7 263 11.3 14.5 0.00 0.00 0.00 61 1007.0
20260505081539 7 249 8.0 16.1 0.00 0.00 0.00 60 1006.8
20260505080034 7 246 11.3 16.1 0.00 0.00 0.00 57 1006.8
20260505074532 7 256 9.7 16.1 0.00 0.00 0.00 57 1006.7
20260505073032 7 269 11.3 16.1 0.00 0.00 0.00 56 1006.8
20260505071528 7 260 11.3 17.7 0.00 0.00 0.00 58 1006.6
20260505070026 7 252 12.9 16.1 0.00 0.00 0.00 56 1006.5
20260505064523 7 264 11.3 19.3 0.00 0.00 0.00 56 1006.4
20260505063019 8 269 11.3 17.7 0.00 0.00 0.00 53 1006.5
20260505061516 8 262 9.7 17.7 0.00 0.00 0.00 56 1006.4
20260505060015 8 269 4.8 14.5 0.00 0.00 0.00 56 1006.4
20260505054512 8 269 3.2 17.7 0.00 0.00 0.00 55 1006.3
20260505053009 8 275 11.3 17.7 0.00 0.00 0.00 55 1006.2
20260505051522 8 274 9.7 19.3 0.00 0.00 0.00 55 1006.3
20260505041606 9 272 17.7 27.4 0.00 0.00 0.00 56 1006.4
20260505040104 10 288 17.7 25.7 0.00 0.00 0.00 55 1006.3
20260505034557 10 271 17.7 29.0 0.00 0.00 0.00 54 1006.2
20260505033056 10 277 16.1 27.4 0.00 0.00 0.00 53 1006.1
20260505031558 10 271 20.9 32.2 0.00 0.00 0.00 52 1006.0
20260505030053 10 265 22.5 32.2 0.00 0.00 0.00 51 1006.0
20260505024553 11 278 22.5 35.4 0.00 0.00 0.00 52 1005.7
20260505023046 11 277 22.5 30.6 0.00 0.00 0.00 53 1005.3
20260505021549 11 270 24.1 38.6 0.00 0.00 0.00 52 1005.0
20260505020041 11 268 22.5 37.0 0.00 0.00 0.00 52 1004.6
20260505014538 11 279 27.4 38.6 0.00 0.00 0.00 51 1004.2
20260505013035 11 273 24.1 33.8 0.00 0.00 0.00 53 1004.0
20260505011534 12 274 24.1 46.7 0.00 0.00 0.00 53 1003.8
20260505010033 12 257 33.8 43.5 0.00 0.00 0.00 52 1003.5
20260505004530 13 269 29.0 38.6 0.00 0.00 0.00 48 1003.0
20260505003030 13 248 25.7 43.5 0.00 0.00 0.00 48 1002.8
20260505001529 14 264 27.4 38.6 0.00 0.00 0.00 45 1002.3
20260505000030 14 250 32.2 41.8 0.00 0.00 0.00 46 1002.3
20260504234533 14 264 35.4 46.7 0.00 0.00 0.00 42 1002.3
20260504233027 15 235 30.6 38.6 0.00 0.00 0.00 42 1002.4
20260504231526 15 242 25.7 43.5 0.00 0.00 0.00 43 1002.4
20260504230026 15 261 35.4 53.1 0.00 0.00 0.00 36 1002.2
20260504224526 16 280 33.8 43.5 0.00 0.00 0.00 41 1002.0
20260504223024 16 246 32.2 43.5 0.00 0.00 0.00 41 1001.8
20260504221523 16 251 27.4 37.0 0.00 0.00 0.00 39 1001.4
20260504220023 16 252 27.4 40.2 0.00 0.00 0.00 41 1001.2
20260504214523 17 282 32.2 38.6 0.00 0.00 0.00 38 1000.7
20260504213021 17 265 32.2 41.8 0.00 0.00 0.00 37 1000.5
20260504211520 17 253 29.0 45.1 0.00 0.00 0.00 38 1000.5
20260504210022 18 248 27.4 46.7 0.00 0.00 0.00 40 1000.4
20260504204519 18 290 19.3 41.8 0.00 0.00 0.00 41 1000.4
20260504203024 18 292 27.4 38.6 0.00 0.00 0.00 39 1000.3
20260504201518 18 267 29.0 43.5 0.00 0.00 0.00 37 1000.3
20260504200017 19 248 24.1 35.4 0.00 0.00 0.00 40 1000.1
20260504194517 19 269 29.0 38.6 0.00 0.00 0.00 38 999.9
20260504193018 19 259 30.6 40.2 0.00 0.00 0.00 39 999.8
20260504191523 19 289 24.1 37.0 0.00 0.00 0.00 38 999.7
20260504190014 19 250 32.2 43.5 0.00 0.00 0.00 38 999.7
20260504184514 19 277 16.1 38.6 0.00 0.00 0.00 39 999.6
20260504183014 19 302 20.9 35.4 0.00 0.00 0.00 39 999.3
20260504181513 20 259 22.5 33.8 0.00 0.00 0.00 37 999.2
20260504180012 19 256 25.7 37.0 0.00 0.00 0.00 39 999.0
20260504174512 19 240 20.9 29.0 0.00 0.00 0.00 42 998.9
20260504173010 19 257 17.7 25.7 0.00 0.00 0.00 45 998.8
20260504171510 20 267 16.1 33.8 0.00 0.00 0.00 44 998.8